Weather Roundup
Issued by NWS Chicago, IL

Home | Current Version | Previous Version | Text Only | Print | Product List | Glossary On
Versions: 1 2 3 4 5 6 7 8 9 10 11 12 13 14 15 16 17 18 19 20 21 22 23 24 25 26 27 28 29 30 31 32 33 34 35 36 37 38 39 40 41 42 43 44 45 46 47 48 49 50
000
NZUS59 KLOT 160910
HRRLOT

CHICAGO AREA WEATHER ROUNDUP
NATIONAL WEATHER SERVICE CHICAGO/ROMEOVILLE IL
400 AM CDT TUE SEP 16 2014

NOTE: "FAIR" INDICATES FEW OR NO CLOUDS BELOW 12,000 FEET WITH NO
SIGNIFICANT WEATHER AND/OR OBSTRUCTIONS TO VISIBILITY.

* THESE STATIONS ARE NOT UNDER NWS QUALITY CONTROL. THEY ALSO MAY NOT
  REPORT WEATHER SUCH AS PRECIPITATION OR FOG.

ILZ005-006-012>014-019>023-161000-
NORTHEAST ILLINOIS

CITY           SKY/WX    TMP DP  RH WIND       PRES   REMARKS
OHARE          CLEAR     47  44  90 W5        30.19R
MIDWAY         PTCLDY    50  47  89 W6        30.19S
AURORA         CLEAR     42  39  89 W5        30.21R FOG
LANSING*       MOCLDY    48  47  97 CALM      30.19S
JOLIET*        CLEAR     45  44  95 N3        30.20F
WAUKEGAN       CLEAR     46  43  89 NW6       30.17S
DUPAGE AIRPORT CLEAR     43  40  89 CALM      30.19S
WHEELING       CLEAR     47  44  90 CALM      30.20R
KANKAKEE*      CLEAR     49  48  95 NW3       30.19S
MORRIS*        CLEAR     45  45 100 NW5       30.20S FOG
LEWIS AIRPORT* CLEAR     45  45 100 N5        30.19S FOG
NORTHERLY IS     N/A     53  46  77 W6          N/A
$$

WIZ051-052-058>065-066-070>072-161000-
SOUTHEAST WISCONSIN

CITY           SKY/WX    TMP DP  RH WIND       PRES   REMARKS
MILWAUKEE      CLEAR     47  43  86 NW7       30.19R
KENOSHA*       CLEAR     46  43  89 NW6       30.19S
RACINE*        CLEAR     46  43  89 NW6       30.20R
BURLINGTON     CLEAR     43  42  97 NW5       30.19S
WAUKESHA       CLEAR     43  41  93 W6        30.20S
WEST BEND      FOG       41  37  87 CALM      30.19S VSB 1/2
$$

INZ001>003-010>013-019-020-161000-
NORTHWEST INDIANA

CITY           SKY/WX    TMP DP  RH WIND       PRES   REMARKS
GARY*          CLOUDY    54  49  85 W7        30.18S
MICHIGAN CITY* NOT AVBL
RENSSELAER*    NOT AVBL
VALPARAISO     CLOUDY    52  49  89 CALM      30.17S
$$

LMZ740>746-161000-
SOUTHERN LAKE MICHIGAN

STATION/POSITION TIME  SKY/WX   TEMP WIND        PRES    VSBY
                                AIR  DIR/SP/G
                 (UTC)          (F)  (DEG/KT/KT) (MB)    (MI)
HARRISON CRIB    0900            53  280/  9/ 10   N/A
BURNHAM HARBOR   0900            52  270/  6/  7   N/A
CALUMET HARBOR   0900            51  290/  3/  4 1020.7S
BURNS HARBOR     NOT AVBL
MICHIGAN CITY    0900            57   30/ 11/ 16   N/A
$$

ABBREVIATIONS USED IN REMARKS
   TC - TEMPERATURE IN CELSIUS
  WCI - WIND CHILL INDEX
   HX - HEAT INDEX
  VSB - VISIBILITY
$$


USA.gov is the U.S. government's official web portal to all federal, state and local government web resources and services.